< Cyclone 200802 2008 Season Cyclone 200806 >
Cyclone 200803 (Guba)
General InformationTrack Information on Google MapsDetailed Wind InformationList of All Images || ResourceGoogle EarthGE AnimationAtom FeedGeoJSON
Detalied Best Track (Time Zone = UTC)
Year Month Day Hour Lat. Long. Pressure (hPa) Wind (kt) Class Image Chart
2007 11 14 00 -11.0 146.9 997 30 2 Image --
2007 11 14 06 -10.7 146.7 995 35 3 Image --
2007 11 14 12 -10.2 146.4 993 35 3 Image --
2007 11 14 18 -10.6 145.7 995 35 3 Image --
2007 11 15 00 -10.5 145.9 995 40 3 Image --
2007 11 15 06 -10.6 146.2 990 45 3 Image --
2007 11 15 12 -10.5 146.5 990 60 4 Image --
2007 11 15 18 -10.8 146.7 990 65 5 Image --
2007 11 16 00 -11.2 146.8 974 65 5 Image --
2007 11 16 06 -11.3 147.0 973 65 5 Image --
2007 11 16 12 -11.4 147.1 973 65 5 Image --
2007 11 16 18 -11.4 147.1 971 65 5 Image --
2007 11 17 00 -11.2 147.3 973 65 5 Image --
2007 11 17 06 -11.6 147.5 978 60 4 Image --
2007 11 17 12 -11.9 147.4 975 50 4 Image --
2007 11 17 18 -12.3 146.9 985 45 3 Image --
2007 11 18 00 -12.3 146.7 985 40 3 Image --
2007 11 18 06 -12.5 146.6 990 35 3 Image --
2007 11 18 12 -12.5 146.1 995 35 3 Image --
2007 11 18 18 -12.5 145.1 995 35 3 Image --
2007 11 19 00 -12.0 144.8 987 35 3 Image --
2007 11 19 06 -10.7 145.0 990 35 3 Image --
2007 11 19 12 -10.2 144.9 990 30 2 Image --
< Cyclone 200802 2008 Season Cyclone 200806 >

Help